Visibility
15.0 15.0 15.0 15.0 15.0 15.0 15.0 15.0 15.0 7.8 12.0 4.8 4.8 8.2 13.9 15.0 15.0 14.6 15.0 15.0 15.0 15.0 15.0 15.0 15.0 15.0 15.0 15.0 15.0 15.0 15.0 15.0 15.0 15.0 15.0 15.0 15.0 15.0 15.0 15.0 15.0 15.0 15.0
15.0 15.0 15.0 15.0 15.0 15.0 15.0 14.4 15.0 9.5 12.0 7.0 14.5 11.2 15.0 15.0 11.1 15.0 15.0 15.0 15.0 15.0 15.0 15.0 13.0 14.1 15.0 15.0 15.0 15.0 15.0 15.0 15.0 15.0 15.0 15.0 15.0 15.0 15.0 15.0 15.0 15.0 15.0
15.0 15.0 15.0 15.0 15.0 15.0 7.6 6.9 15.0 9.2 6.7 5.8 8.2 10.8 6.4 13.1 12.5 15.0 15.0 15.0 15.0 15.0 15.0 15.0 6.5 9.0 15.0 15.0 15.0 15.0 15.0 15.0 15.0 15.0 15.0 15.0 15.0 15.0 15.0 15.0 15.0 15.0 15.0
15.0 15.0 15.0 15.0 15.0 10.3 10.3 14.7 8.8 10.3 6.8 15.0 14.2 15.0 8.9 4.2 12.6 10.7 14.7 15.0 15.0 15.0 15.0 12.5 7.1 12.3 15.0 15.0 15.0 15.0 15.0 15.0 15.0 15.0 15.0 15.0 15.0 15.0 15.0 15.0 15.0 15.0 15.0
15.0 15.0 15.0 15.0 15.0 13.5 9.5 12.2 13.3 8.7 8.1 3.8 15.0 15.0 10.4 2.3 9.6 15.0 12.2 15.0 15.0 8.2 9.1 6.7 10.1 15.0 15.0 15.0 15.0 15.0 15.0 15.0 15.0 15.0 15.0 15.0 15.0 15.0 15.0 14.2 15.0 15.0 15.0
14.8 5.4 15.0 4.7 15.0 15.0 15.0 15.0 15.0 15.0 14.9 15.0 15.0 10.6 15.0 14.7 5.6 7.2 15.0 15.0 5.8 2.6 3.2 8.1 15.0 15.0 15.0 15.0 15.0 15.0 15.0 15.0 15.0 11.2 14.7 15.0 15.0 15.0 15.0 10.4 1.5 3.3 2.2
15.0 15.0 10.7 13.0 4.5 5.8 15.0 7.8 6.4 8.8 15.0 15.0 15.0 11.2 14.7 15.0 14.5 11.8 15.0 10.3 2.9 7.3 7.2 11.2 15.0 15.0 15.0 15.0 15.0 15.0 15.0 15.0 15.0 15.0 15.0 15.0 13.8 15.0 1.1 1.0 3.9 6.7 2.5
15.0 5.5 4.1 5.9 5.7 15.0 15.0 9.6 15.0 15.0 12.3 15.0 15.0 14.5 14.7 15.0 9.9 15.0 9.4 4.5 5.6 5.0 8.9 14.0 14.0 15.0 15.0 15.0 15.0 15.0 15.0 15.0 15.0 15.0 15.0 15.0 15.0 15.0 13.7 5.1 8.6 9.7 15.0
15.0 14.5 8.7 7.6 15.0 15.0 15.0 15.0 7.2 11.4 15.0 15.0 10.2 15.0 15.0 14.9 11.7 10.2 5.6 3.5 3.9 6.9 8.9 9.1 15.0 15.0 15.0 15.0 15.0 15.0 15.0 15.0 15.0 15.0 15.0 15.0 15.0 15.0 15.0 15.0 3.3 0.7 0.9
15.0 15.0 11.1 15.0 7.5 3.7 14.7 9.3 11.5 9.9 15.0 14.8 15.0 15.0 14.7 0.1 7.7 10.8 5.5 5.0 15.0 8.8 13.7 12.5 14.1 8.6 15.0 15.0 15.0 14.3 2.2 15.0 15.0 15.0 15.0 15.0 15.0 15.0 15.0 15.0 3.3 0.1 0.6
15.0 15.0 15.0 12.8 8.5 15.0 9.3 10.4 6.3 8.7 15.0 15.0 15.0 15.0 15.0 7.8 9.6 5.6 8.3 15.0 14.9 3.0 1.6 2.4 10.9 15.0 15.0 15.0 15.0 15.0 15.0 15.0 15.0 13.5 15.0 15.0 15.0 15.0 15.0 15.0 15.0 0.6 0.4
15.0 15.0 15.0 15.0 12.5 10.0 6.0 9.6 10.0 15.0 15.0 14.6 0.2 0.1 5.2 10.5 5.7 5.5 10.4 15.0 14.3 5.5 3.2 2.9 4.1 15.0 15.0 15.0 15.0 15.0 15.0 15.0 15.0 15.0 15.0 15.0 15.0 15.0 15.0 15.0 15.0 15.0 15.0
15.0 15.0 15.0 15.0 15.0 10.7 13.6 12.5 15.0 15.0 15.0 0.4 0.1 0.1 0.1 0.2 0.8 6.2 14.8 14.5 5.7 5.2 4.9 5.4 11.6 15.0 15.0 15.0 15.0 15.0 15.0 15.0 1.1 15.0 15.0 15.0 15.0 15.0 15.0 15.0 15.0 15.0 15.0
15.0 15.0 15.0 15.0 15.0 15.0 15.0 15.0 15.0 15.0 15.0 13.9 0.4 0.2 0.1 0.0 0.0 0.1 0.1 0.3 15.0 15.0 9.9 3.8 15.0 15.0 15.0 15.0 15.0 15.0 15.0 15.0 1.6 0.6 15.0 15.0 15.0 15.0 15.0 6.6 15.0 15.0 8.7
15.0 15.0 15.0 9.9 9.6 15.0 15.0 15.0 15.0 15.0 15.0 15.0 14.0 1.6 0.1 0.1 0.4 6.5 3.9 4.4 15.0 9.0 3.2 9.6 15.0 15.0 15.0 15.0 15.0 15.0 15.0 15.0 12.5 15.0 14.3 15.0 15.0 15.0 15.0 11.3 12.0 12.1 12.8
15.0 15.0 15.0 2.9 0.8 4.3 0.1 0.1 2.4 7.2 9.4 3.2 2.4 0.3 4.0 9.9 14.7 15.0 15.0 15.0 8.2 8.4 11.3 15.0 12.8 15.0 15.0 15.0 15.0 10.6 11.6 11.9 14.9 15.0 10.3 14.8 9.3 10.5 14.8 15.0 12.6 9.2 15.0
9.0 15.0 2.2 0.7 0.1 0.1 0.2 0.2 0.1 0.1 0.2 2.5 8.2 4.6 6.4 14.5 15.0 15.0 15.0 10.2 10.9 12.2 15.0 15.0 15.0 15.0 15.0 15.0 14.9 7.5 7.3 8.5 15.0 15.0 15.0 15.0 14.7 15.0 6.1 10.5 15.0 14.9 7.2
15.0 15.0 15.0 10.5 0.7 1.3 1.0 0.2 0.2 0.1 0.0 0.0 2.4 4.0 15.0 15.0 15.0 15.0 15.0 10.2 4.1 12.0 15.0 14.2 4.4 10.5 8.1 9.4 13.1 7.0 7.7 7.3 13.5 15.0 14.9 15.0 11.4 6.0 6.4 4.6 0.6 5.0 1.2
14.8 2.9 13.6 5.4 8.0 0.2 0.1 0.0 0.0 0.0 0.0 0.0 0.0 2.3 15.0 15.0 15.0 8.9 7.8 3.2 5.3 7.5 6.1 8.7 8.4 9.2 10.7 8.2 6.0 5.5 3.1 5.4 2.7 0.3 7.7 15.0 6.7 1.4 3.5 11.5 13.5 12.7 1.4
0.0 0.0 0.2 0.1 0.0 0.0 0.0 0.0 0.0 0.0 0.1 0.1 0.1 0.1 0.5 6.0 2.6 3.1 3.8 4.0 3.7 7.8 10.5 13.6 8.2 8.9 7.9 10.7 0.9 0.1 0.1 1.1 0.1 3.5 15.0 15.0 14.3 5.2 2.2 0.9 12.3 0.6 0.8
0.0 0.0 0.0 0.0 0.0 0.0 0.0 0.0 0.0 0.1 0.2 1.0 6.9 15.0 14.9 7.4 4.2 8.2 9.2 15.0 15.0 15.0 15.0 15.0 15.0 11.1 14.8 15.0 3.3 0.4 0.1 0.5 7.2 0.4 4.9 10.2 15.0 2.4 3.6 1.2 1.8 0.9 0.8
0.0 0.0 0.0 0.0 0.0 0.0 0.0 0.1 0.1 0.1 0.3 3.0 7.8 7.3 14.6 15.0 15.0 12.3 10.3 15.0 15.0 15.0 15.0 15.0 15.0 15.0 15.0 15.0 15.0 15.0 0.9 2.8 11.5 4.9 2.9 5.2 5.9 14.5 6.8 2.4 0.8 0.6 0.4
0.0 0.0 0.0 0.0 0.1 0.3 0.7 1.2 1.8 2.9 8.9 15.0 15.0 15.0 15.0 11.9 13.1 15.0 15.0 15.0 15.0 15.0 15.0 15.0 15.0 15.0 15.0 15.0 15.0 15.0 0.5 3.2 15.0 5.4 9.1 3.6 4.1 4.2 15.0 11.7 1.2 1.1 0.3
0.0 0.1 0.1 0.1 0.2 0.3 0.9 2.9 13.8 15.0 15.0 15.0 14.4 0.1 0.2 0.1 0.2 3.0 0.3 15.0 15.0 4.3 1.1 1.2 4.6 15.0 15.0 15.0 15.0 15.0 15.0 15.0 10.5 13.7 8.2 0.1 0.5 3.5 4.2 6.9 10.0 0.5 0.2
15.0 14.6 13.4 13.4 15.0 15.0 14.0 3.2 0.2 0.2 0.2 0.1 0.1 0.1 7.9 3.9 2.3 5.4 0.3 0.1 0.6 6.4 4.5 15.0 0.9 0.2 1.0 0.9 1.1 14.2 14.8 6.8 12.7 4.2 4.1 4.1 0.2 2.0 4.1 4.6 7.1 1.4 0.5
6.0 0.2 0.1 0.1 0.4 0.6 0.1 0.1 0.1 1.8 4.5 14.0 14.9 14.8 14.3 15.0 15.0 15.0 15.0 6.9 3.6 4.4 10.8 14.8 10.0 15.0 15.0 13.0 2.4 0.1 12.0 8.6 8.6 4.7 14.8 8.7 7.9 4.5 4.1 4.1 8.9 1.9 0.6